Regional Weather Roundup
Issued by NWS

Home | Current Version | Previous Version | Text Only | Print | Product List | Glossary Off
Versions: 1 2 3 4 5 6 7 8 9 10 11 12 13 14 15 16 17 18 19 20 21 22 23 24 25 26 27 28 29 30 31 32 33 34 35 36 37 38 39 40 41 42 43 44 45 46 47 48 49 50

000
ASUS43 KLOT 312004
RWRIL

ILLINOIS REGIONAL WEATHER ROUNDUP
NATIONAL WEATHER SERVICE CHICAGO/ROMEOVILLE IL
300 PM CDT WED AUG 31 2016

NOTE: "FAIR" INDICATES FEW OR NO CLOUDS BELOW 12,000 FEET WITH NO
SIGNIFICANT WEATHER AND/OR OBSTRUCTIONS TO VISIBILITY.

* THESE STATIONS ARE NOT UNDER NWS QUALITY CONTROL. THEY ALSO MAY NOT
  REPORT WEATHER SUCH AS PRECIPITATION OR FOG.

ILZ001-002-007-009-015-016-024-312100-
NORTHWEST ILLINOIS

CITY           SKY/WX    TMP DP  RH WIND       PRES   REMARKS
MOLINE         MOSUNNY   81  63  54 N8        30.08F HX  82
STERLING*      MOSUNNY   79  65  62 NW12      30.09F HX  81
SAVANNA*       SUNNY     78  59  51 N9        30.09F
$$

ILZ003-004-008-010-011-017-018-312100-
NORTH CENTRAL ILLINOIS

CITY           SKY/WX    TMP DP  RH WIND       PRES   REMARKS
ROCKFORD       MOSUNNY   78  54  43 NE13      30.10S
FREEPORT*      SUNNY     74  58  56 N8        30.12F
ROCHELLE*      PTSUNNY   76  61  59 NE10      30.09F
$$

ILZ005-006-012>014-019>023-312100-
NORTHEAST ILLINOIS

CITY           SKY/WX    TMP DP  RH WIND       PRES   REMARKS
CHICAGO-OHARE  PTSUNNY   76  56  49 N18G24    30.07F
CHICAGO-MIDWAY PTSUNNY   77  56  48 NE18G24   30.06F
AURORA         MOSUNNY   76  62  62 N9G21     30.07F
LANSING*       PTSUNNY   73  65  76 N15       30.07S
JOLIET*        CLOUDY    79  65  62 NE10G16   30.06S HX  81
WAUKEGAN       MOSUNNY   73  54  51 NE9G22    30.09S
DUPAGE AIRPORT MOSUNNY   79  61  53 N12       30.07F HX  80
KANKAKEE*      CLOUDY    76  62  60 N7G16     30.05S
WHEELING       MOSUNNY   75  55  49 NE14G24   30.10R
MORRIS*        CLOUDY    79  64  60 N3        30.04F HX  80
ROMEOVILLE*    CLOUDY    76  66  69 NE13      30.06F
NORTHERLY ISL    N/A     72  63  73 N17         N/A
$$

LMZ740>746-312100-
SOUTHERN LAKE MICHIGAN

STATION/POSITION SKY/WX   TEMP    WIND        PRES    VSBY  WAVE
                          AIR SEA DIR/SP/G                  HT/PER
                          (F)     (DEG/KT/KT) (MB)    (MI)  (FT/S)
SOUTHERN BUOY              71 75   10/ 19/ 23 1017.5          5/ 6
WILMETTE HARBOR            70 72   20/ 16/ 19   N/A           6/ 6
HARRISON CRIB              70     340/ 19/ 20   N/A
BURNHAM HARBOR             73     360/ 13/ 17   N/A
CALUMET HARBOR             72     350/ 17/ 22 1018.0R
BURNS HARBOR               72      10/ 15/ 20 1018.3S
MICHIGAN CITY              71     340/ 20/ 22   N/A
MICHIGAN CITY 6N           72 69  360/ 17/ 23   N/A           6/ 5
ST. JOSEPH                 71 70  350/ 17/ 21 1017.1R         5/ 5
$$

ILZ025>027-034>036-040-047-049-050-058-095>099-312100-
WEST-CENTRAL ILLINOIS

CITY           SKY/WX    TMP DP  RH WIND       PRES   REMARKS
QUINCY         MOSUNNY   82  65  56 N13       30.06F HX  84
GALESBURG*     PTSUNNY   78  65  63 N9        30.08S HX  80
MACOMB*        MOSUNNY   79  67  64 N9        30.09S HX  81
JACKSONVILLE*  CLOUDY    80  70  72 NW10      30.04S HX  83
PITTSFIELD*    CLOUDY    81  70  70 N9        30.06F HX  84
$$

ILZ028>032-037-038-041>044-048-051>054-059>061-312100-
CENTRAL ILLINOIS

CITY           SKY/WX    TMP DP  RH WIND       PRES   REMARKS
PONTIAC        CLOUDY    79  68  69 N10       30.05F HX  82
BLOOMINGTON    PTSUNNY   79  69  71 N14       30.05F HX  81
DECATUR        CLOUDY    83  69  62 N9        30.01F HX  86
PEORIA         MOSUNNY   79  69  71 N9        30.05F HX  81
LACON*         PTSUNNY   79  64  61 N7        30.05F HX  81
LINCOLN*       MOSUNNY   83  70  66 N12       30.02F HX  86
SPRINGFIELD    CLOUDY    85  70  60 NW9       30.03F HX  89
TAYLORVILLE    CLOUDY    81  71  70 NW9       30.02S HX  85
$$

ILZ033-039-045-046-055>057-062-063-312100-
EAST-CENTRAL ILLINOIS

CITY           SKY/WX    TMP DP  RH WIND       PRES   REMARKS
CHAMPAIGN      CLOUDY    81  69  67 N9        30.01F HX  84
RANTOUL*       CLOUDY    84  71  64 N14G20    30.01F HX  88
MATTOON        CLOUDY    82  67  60 N9        29.99F HX  84
PARIS*         CLOUDY    84  70  63 N5        30.00F HX  88
$$

ILZ079-100>102-312100-
SOUTHWEST ILLINOIS

CITY           SKY/WX    TMP DP  RH WIND       PRES   REMARKS
BELLEVILLE     MOSUNNY   77  68  73 N13G20    30.01R
CAHOKIA*       CLOUDY    79  68  69 N17       30.02S HX  81
SPARTA*        PTSUNNY   84  73  68 CALM      30.01F HX  91
$$

ILZ064>066-069>071-074>076-080>082-084>086-088>090-092>094-312100-
SOUTH-CENTRAL ILLINOIS

CITY           SKY/WX    TMP DP  RH WIND       PRES   REMARKS
CARBONDALE     MOSUNNY   84  71  65 N8        29.99F HX  89
EFFINGHAM*     MOSUNNY   82  71  70 NW7       30.00F HX  85
MARION         MOSUNNY   88  72  58 NW8       29.99F HX  94
MT. VERNON     PTSUNNY   86  70  58 CALM      29.99F HX  90
CENTRALIA*     LGT RAIN  78  72  81 N8        29.99S HX  81
SALEM*         PTSUNNY   82  73  73 N7        30.01S HX  87
METROPOLIS*    MOSUNNY   91  73  54 NW8       29.97F HX  98
$$

ILZ067-068-072-073-078-083-087-091-312100-
SOUTHEAST ILLINOIS

CITY           SKY/WX    TMP DP  RH WIND       PRES   REMARKS
LAWRENCEVILLE  MOSUNNY   87  71  58 N8        29.97F HX  93
FLORA*         PTSUNNY   85  73  68 N6        29.98F HX  92
FAIRFIELD*     PTSUNNY   85  72  64 NW3       29.96F HX  91
HARRISBURG*    MOSUNNY   83  74  72 NW6       29.98F HX  90
ROBINSON*      MOSUNNY   84  74  70 NW6       29.97F HX  91
CARMI*         MOSUNNY   87  74  64 NW7       29.96F HX  95
$$

ABBREVIATIONS USED IN REMARKS
   TC - TEMPERATURE IN CELSIUS
  WCI - WIND CHILL INDEX
   HX - HEAT INDEX
  VSB - VISIBILITY
$$





USA.gov is the U.S. government's official web portal to all federal, state and local government web resources and services.